CAPE
449 361 391 450 476 484 525 640 621 610 694 660 714 467 534 610 639 656 693 745 955 1136 1167 1040 977 982 1047 1005 756 701 632 462 392 347 365 298 588 815 779 688 300 63 386
481 494 415 414 400 382 379 367 528 642 629 556 441 458 453 669 658 617 634 757 945 1012 936 890 831 825 728 703 635 522 435 399 366 304 215 266 206 520 627 689 614 466 286
480 428 348 282 270 267 296 283 406 658 741 663 377 379 392 510 528 736 840 959 1008 913 912 836 742 732 536 304 220 278 273 278 272 253 203 55 63 250 257 314 608 742 538
445 475 300 154 103 151 178 280 391 512 526 496 508 374 434 404 406 688 806 939 911 979 935 856 798 465 213 176 271 108 155 207 216 194 88 57 23 87 57 58 86 302 481
306 300 171 76 97 117 128 147 256 271 316 308 288 325 285 279 384 474 695 828 899 892 852 682 451 177 22 61 105 134 133 102 127 247 236 514 237 261 73 13 0 0 12
4 55 12 10 22 33 50 108 160 194 213 190 126 128 189 203 304 344 501 633 698 721 579 371 194 13 99 135 154 78 58 136 384 318 193 149 287 184 74 30 4 4 5
0 0 8 9 17 18 12 41 130 188 201 173 114 129 144 153 151 181 230 378 403 362 297 194 67 11 177 176 257 0 7 90 130 131 150 96 193 122 62 8 1 3 0
0 0 0 0 0 5 23 2 10 68 124 149 164 165 139 66 34 21 91 134 179 160 117 73 26 5 161 199 54 4 63 40 78 156 178 152 38 39 2 0 2 1 0
0 0 0 0 0 0 0 18 6 3 11 78 102 135 111 87 61 1 8 46 67 88 73 42 12 0 47 72 61 54 14 0 162 162 77 99 18 44 9 3 1 0 0
0 0 0 0 0 0 2 21 103 79 1 0 0 30 41 49 24 16 1 0 10 34 40 21 1 0 0 0 32 55 13 0 131 164 99 26 1 16 30 60 23 0 0
0 0 0 0 0 0 0 2 0 3 1 1 0 0 1 87 140 197 92 93 5 0 0 0 0 0 0 0 0 0 12 233 172 119 49 0 130 247 187 0 1 0 0
0 0 0 0 0 0 0 0 0 0 0 3 3 3 53 13 2 4 16 0 24 0 0 0 0 0 0 0 0 0 21 19 75 124 106 0 132 209 283 1 0 0 0
0 0 0 0 0 0 0 0 0 0 0 0 1 2 3 13 44 208 320 179 125 40 141 0 0 0 0 0 0 0 0 0 0 18 86 0 0 346 202 144 13 0 0
0 0 0 0 0 0 0 0 0 0 0 0 0 1 0 3 4 4 90 351 167 91 95 93 31 1 0 0 0 0 0 4 77 107 112 0 0 74 276 231 27 2 0
0 0 0 0 0 0 0 0 0 0 0 0 0 0 0 0 3 0 0 1 104 200 203 113 71 52 54 47 15 0 0 35 137 299 301 3 0 0 197 323 117 37 1
0 0 0 0 0 0 0 0 0 0 0 0 0 0 0 0 0 0 0 0 3 3 62 210 70 82 59 63 124 258 277 293 284 388 493 335 0 0 0 143 262 150 13
0 0 0 0 0 0 0 0 0 0 0 0 0 0 0 0 0 0 0 1 3 4 2 83 158 94 100 76 81 165 123 162 351 444 500 477 306 0 0 0 89 296 147
0 0 0 0 0 0 0 0 0 0 0 0 0 0 0 0 0 0 0 0 2 2 0 0 3 18 71 56 76 99 128 140 238 485 490 550 461 366 107 5 14 120 226
0 0 0 0 0 0 0 0 0 0 0 0 0 0 0 0 0 0 0 0 3 1 4 2 0 1 8 0 0 59 76 85 103 166 420 521 540 376 415 198 20 47 118
0 0 0 0 0 0 0 0 0 0 0 0 0 0 0 0 0 0 0 0 1 1 0 0 0 0 5 0 0 42 42 2 56 82 168 466 502 492 455 403 327 88 21
0 0 0 0 0 0 0 0 0 0 0 0 0 0 0 0 0 0 0 0 0 0 0 0 0 0 0 0 3 1 24 3 11 111 229 326 423 421 439 459 434 386 313
0 0 0 0 0 0 0 0 0 0 0 0 0 0 0 0 0 0 0 0 0 0 0 0 0 0 0 0 2 1 1 8 71 134 218 167 203 319 319 362 401 381 384
0 0 0 0 0 0 0 0 0 0 0 0 0 0 0 0 0 0 0 0 0 0 0 0 0 0 0 0 3 2 0 2 0 3 81 146 85 97 193 253 247 266 307
0 0 0 0 0 0 0 0 0 0 0 0 0 0 0 0 0 0 0 0 0 0 0 0 0 0 0 0 0 0 1 3 1 0 0 0 0 6 127 178 221 267 271
0 0 0 0 0 0 0 0 0 0 0 0 0 0 0 0 0 0 0 0 0 0 0 0 0 0 0 0 1 1 0 0 0 5 1 0 0 0 0 12 108 156 287
0 0 0 0 0 0 0 0 0 0 0 0 0 0 0 0 0 0 0 0 0 0 0 0 0 0 0 0 0 1 0 4 3 3 4 5 2 0 0 0 28 99 140
CIN
-0 -0 -11 -2 -6 -2 -3 -2 -3 -5 -3 -3 -4 -10 -10 -8 -6 -6 -3 -3 -1 -1 -0 -1 -0 -1 -0 -0 -4 -5 -6 -15 -22 -32 -40 -50 -1 -0 -0 -0 -28 -92 -9
-0 -0 -2 -2 -9 -3 -3 -4 -3 -2 -3 -6 -10 -10 -11 -3 -7 -6 -5 -2 -1 -0 -0 -0 -1 -1 -6 -9 -11 -12 -24 -26 -29 -48 -93 -73 -85 -5 -1 -1 -1 -4 -19
-0 -0 -0 -12 -16 -7 -5 -3 -4 -1 -0 -2 -10 -9 -13 -9 -10 -4 -3 -2 -1 -0 -0 -2 -8 -8 -18 -61 -83 -63 -66 -69 -74 -80 -86 -132 -119 -56 -61 -34 -1 -0 -1
-0 -1 -3 -26 -53 -23 -10 -3 -1 -0 -2 -3 -4 -7 -6 -15 -13 -3 -4 -1 -2 -0 -0 -0 -9 -37 -112 -115 -76 -140 -114 -100 -94 -100 -114 -111 -126 -111 -120 -114 -84 -18 -2
-1 -1 -18 -65 -63 -36 -27 -27 -2 -3 -4 -5 -6 -6 -6 -15 -8 -7 -4 -1 -1 -0 -0 -12 -38 -130 -218 -187 -161 -134 -133 -149 -126 -56 -50 -10 -48 -54 -100 -97 -0 -1 -35
-3 -79 -128 -201 -153 -140 -114 -64 -20 -7 -7 -10 -28 -44 -19 -22 -7 -6 -7 -6 -10 -8 -16 -44 -112 -220 -163 -156 -144 -179 -190 -139 -55 -52 -75 -77 -30 -71 -108 -154 -3 -5 -4
-0 -0 -117 -153 -197 -196 -193 -146 -43 -20 -5 -19 -43 -46 -55 -48 -56 -54 -39 -16 -24 -32 -38 -73 -173 -249 -143 -136 -112 -0 -98 -160 -113 -117 -101 -108 -69 -94 -132 -78 -0 -2 -0
-0 -0 -0 -0 -0 -77 -187 -102 -198 -112 -52 -24 -28 -35 -54 -116 -206 -230 -125 -104 -91 -103 -114 -126 -200 -136 -114 -118 -167 -105 -165 -189 -152 -121 -112 -104 -192 -158 -0 -0 -1 -1 -0
-0 -0 -0 -0 -0 -0 -11 -166 -149 -224 -188 -88 -68 -59 -79 -94 -119 -60 -265 -188 -163 -158 -177 -203 -246 -0 -155 -127 -141 -151 -206 -0 -105 -112 -151 -149 -213 -214 -109 -0 -2 -0 -0
-0 -0 -0 -0 -0 -0 -0 -160 -59 -78 -6 -0 -0 -138 -126 -114 -143 -151 -7 -0 -215 -214 -207 -240 -35 -0 -0 -0 -170 -153 -211 -0 -97 -101 -129 -182 -31 -265 -247 -235 -197 -0 -0
-0 -0 -0 -0 -0 -0 -0 -0 -0 -110 -0 -0 -0 -3 -49 -72 -51 -29 -69 -69 -5 -0 -0 -0 -0 -0 -0 -0 -0 -0 -168 -60 -78 -98 -139 -0 -132 -91 -109 -0 -0 -0 -0
-0 -0 -0 -0 -0 -0 -0 -0 -0 -0 -0 -0 -0 -0 -79 -62 -40 -57 -37 -0 -32 -0 -0 -0 -0 -0 -0 -0 -0 -0 -135 -46 -102 -82 -81 -0 -99 -73 -77 -15 -0 -0 -0
-0 -0 -0 -0 -0 -0 -0 -0 -0 -0 -0 -0 -0 -0 -0 -148 -88 -36 -35 -51 -54 -66 -36 -0 -0 -0 -0 -0 -0 -0 -0 -0 -0 -141 -94 -0 -2 -38 -56 -103 -150 -0 -0
-0 -0 -0 -0 -0 -0 -0 -0 -0 -0 -0 -0 -0 -0 -0 -0 -0 -0 -71 -30 -65 -73 -65 -56 -63 -10 -0 -0 -0 -0 -0 -7 -54 -49 -71 -0 -0 -112 -49 -51 -139 -0 -0
-0 -0 -0 -0 -0 -0 -0 -0 -0 -0 -0 -0 -0 -0 -0 -0 -0 -0 -0 -0 -26 -47 -46 -68 -74 -69 -66 -67 -26 -0 -0 -80 -57 -43 -46 -29 -0 -0 -62 -45 -94 -130 -0
-0 -0 -0 -0 -0 -0 -0 -0 -0 -0 -0 -0 -0 -0 -0 -0 -0 -0 -0 -0 -0 -0 -77 -45 -105 -75 -61 -69 -48 -45 -51 -45 -42 -46 -40 -55 -0 -0 -0 -79 -52 -86 -41
-0 -0 -0 -0 -0 -0 -0 -0 -0 -0 -0 -0 -0 -0 -0 -0 -0 -0 -0 -0 -0 -0 -3 -70 -42 -48 -65 -82 -81 -66 -84 -89 -63 -47 -39 -42 -56 -0 -0 -0 -104 -51 -82
-0 -0 -0 -0 -0 -0 -0 -0 -0 -0 -0 -0 -0 -0 -0 -0 -0 -0 -0 -0 -0 -0 -0 -0 -0 -55 -66 -93 -92 -78 -71 -73 -65 -53 -57 -47 -43 -43 -123 -57 -145 -112 -70
-0 -0 -0 -0 -0 -0 -0 -0 -0 -0 -0 -0 -0 -0 -0 -0 -0 -0 -0 -0 -0 -0 -0 -0 -0 -0 -15 -13 -53 -73 -98 -87 -98 -90 -50 -47 -59 -69 -47 -86 -148 -170 -132
-0 -0 -0 -0 -0 -0 -0 -0 -0 -0 -0 -0 -0 -0 -0 -0 -0 -0 -0 -0 -0 -0 -0 -0 -0 -0 -1 -0 -0 -55 -98 -136 -141 -90 -66 -40 -47 -66 -66 -57 -76 -151 -198
-0 -0 -0 -0 -0 -0 -0 -0 -0 -0 -0 -0 -0 -0 -0 -0 -0 -0 -0 -0 -0 -0 -0 -0 -0 -0 -0 -0 -12 -8 -56 -69 -100 -52 -48 -47 -43 -55 -65 -61 -64 -59 -80
-0 -0 -0 -0 -0 -0 -0 -0 -0 -0 -0 -0 -0 -0 -0 -0 -0 -0 -0 -0 -0 -0 -0 -0 -0 -0 -0 -0 -0 -0 -0 -7 -10 -13 -37 -52 -69 -53 -51 -61 -66 -66 -66
-0 -0 -0 -0 -0 -0 -0 -0 -0 -0 -0 -0 -0 -0 -0 -0 -0 -0 -0 -0 -0 -0 -0 -0 -0 -0 -0 -0 -0 -0 -0 -11 -0 -5 -7 -7 -31 -43 -34 -26 -60 -71 -76
-0 -0 -0 -0 -0 -0 -0 -0 -0 -0 -0 -0 -0 -0 -0 -0 -0 -0 -0 -0 -0 -0 -0 -0 -0 -0 -0 -0 -0 -0 -0 -0 -0 -0 -0 -0 -0 -26 -25 -33 -22 -29 -41
-0 -0 -0 -0 -0 -0 -0 -0 -0 -0 -0 -0 -0 -0 -0 -0 -0 -0 -0 -0 -0 -0 -0 -0 -0 -0 -0 -0 -0 -0 -0 -0 -0 -0 -1 -0 -0 -0 -0 -39 -32 -20 -13
-0 -0 -0 -0 -0 -0 -0 -0 -0 -0 -0 -0 -0 -0 -0 -0 -0 -0 -0 -0 -0 -0 -0 -0 -0 -0 -0 -0 -0 -0 -0 -0 -0 -0 -0 -0 -0 -0 -0 -0 -69 -21 -4
Wind_Speed
7 15 16 21 25 26 28 29 29 29 25 26 27 26 20 11 11 12 17 23 22 23 23 25 26 25 23 24 23 22 21 20 19 15 14 11 10 8 8 2 23 3 4
11 7 6 13 19 23 24 25 27 28 29 29 28 26 16 7 9 10 12 24 24 22 24 26 28 25 22 24 26 23 20 20 20 19 17 12 8 6 6 7 2 7 4
3 5 5 7 15 17 22 21 22 24 27 28 28 27 5 10 11 8 9 16 25 23 22 24 27 26 27 28 28 28 24 23 21 21 17 13 10 7 7 4 5 7 1
4 3 6 2 6 18 19 22 22 22 22 25 27 22 13 12 12 10 11 20 24 23 22 23 23 23 25 26 27 28 27 23 23 24 19 14 13 10 10 6 4 4 3
8 9 10 14 15 9 19 22 20 21 20 22 25 20 20 16 12 13 15 19 23 24 23 23 21 21 24 24 24 25 26 25 24 25 21 12 14 14 10 7 6 5 5
10 10 13 18 19 21 22 26 21 20 20 18 21 24 16 17 15 13 14 17 20 22 22 23 19 14 19 22 23 23 24 24 24 24 24 17 16 15 12 9 10 9 9
13 14 17 18 20 23 25 25 26 25 16 15 12 11 18 17 17 16 15 15 17 19 20 21 21 16 18 22 23 22 22 22 22 23 22 18 16 15 12 11 12 12 13
16 17 20 19 21 23 22 24 24 24 24 21 13 8 7 13 17 17 16 15 15 16 16 17 18 19 20 20 20 20 21 21 21 20 20 20 18 18 17 16 14 15 15
18 19 19 21 22 23 24 23 23 23 23 22 22 20 12 11 13 15 17 16 16 15 15 15 16 17 18 18 18 18 18 18 19 19 18 17 17 17 16 16 16 16 16
20 21 21 22 23 23 23 23 23 23 23 22 21 19 19 19 15 14 15 16 17 16 15 15 15 15 15 15 15 15 15 15 16 16 17 16 15 15 14 14 14 15 15
22 23 22 23 23 22 23 23 23 23 23 23 22 21 19 18 18 18 18 18 18 18 18 17 16 15 14 12 12 13 13 14 14 14 14 14 14 13 13 13 12 13 14
23 24 24 24 24 24 23 24 23 24 23 23 23 22 21 19 19 19 20 21 21 20 20 20 20 20 15 12 11 11 12 14 13 13 13 11 11 11 11 11 11 11 12
23 24 24 25 24 24 24 23 24 24 24 24 24 24 22 21 21 20 20 21 20 20 19 20 21 20 19 17 13 12 14 14 15 14 12 9 9 9 10 9 9 10 10
25 25 25 25 25 25 24 24 24 24 24 25 24 25 24 22 22 22 22 22 21 21 22 22 22 21 19 17 18 19 19 19 18 18 14 9 7 8 9 9 9 9 9
26 26 26 26 26 25 25 25 25 25 25 25 25 26 25 24 24 24 23 23 22 23 22 23 23 22 21 19 17 20 22 23 23 21 18 10 7 6 7 8 8 8 8
26 26 26 26 26 25 25 25 25 25 25 26 26 27 26 25 25 25 25 25 25 25 25 24 24 22 21 21 23 23 25 24 24 23 21 18 8 6 5 6 7 7 7
27 27 27 25 25 26 26 26 26 26 26 26 26 27 27 27 26 26 26 26 26 26 26 25 25 24 21 19 22 25 26 26 26 26 24 21 19 9 5 4 5 7 7
28 28 27 26 26 26 26 26 26 26 26 27 27 28 28 28 28 27 26 27 27 26 27 27 28 26 23 23 24 27 25 25 29 30 25 23 21 21 16 5 5 6 7
26 28 28 28 27 25 25 25 26 27 27 27 27 28 28 28 29 27 27 28 27 27 27 28 28 30 31 31 34 30 24 27 26 30 30 26 25 23 22 20 6 5 6
26 27 27 27 28 26 25 25 26 27 27 28 28 29 29 29 29 28 28 28 28 28 28 29 29 29 26 30 31 31 30 27 25 24 25 30 25 24 23 23 25 20 8
24 26 27 28 28 28 28 27 27 28 28 28 28 29 29 29 29 29 28 29 28 29 29 29 29 29 28 31 28 30 29 25 29 26 24 26 21 26 28 23 23 25 26
22 24 25 26 27 28 28 27 25 26 27 27 28 28 29 29 29 29 29 29 29 29 29 30 30 29 27 29 28 27 29 28 28 29 27 26 28 29 29 31 28 27 28
20 20 22 23 25 26 27 27 26 24 25 27 28 28 28 29 29 29 29 29 29 29 29 30 30 30 29 28 25 25 27 28 34 25 26 29 29 32 31 31 30 32 31
17 17 18 20 22 23 25 26 28 28 28 27 27 27 27 28 29 29 29 29 29 29 29 29 29 29 28 29 25 27 24 25 30 33 30 30 33 34 34 33 33 32 32
15 16 17 18 19 21 23 23 25 26 26 26 26 27 28 28 28 29 29 29 29 28 28 29 29 30 28 28 27 27 25 25 25 30 36 37 36 33 33 33 35 37 35
15 15 16 18 19 19 20 21 22 24 25 27 28 28 28 27 26 27 28 28 28 28 28 28 29 29 29 28 27 27 26 26 29 29 33 37 40 36 40 36 34 34 37
Wind_Direction
164 130 123 107 95 91 84 77 72 64 33 34 43 46 26 6 10 18 31 49 45 45 46 50 53 49 43 46 43 39 36 36 33 28 26 22 20 21 25 49 129 137 145
154 156 148 125 110 101 97 92 83 72 66 57 52 47 19 355 9 13 15 54 54 48 53 57 60 50 41 46 51 41 35 36 37 35 31 22 14 9 11 18 42 23 16
323 165 157 139 119 111 99 100 99 94 82 72 65 56 339 4 9 1 6 30 57 56 50 55 62 55 58 63 66 69 51 46 42 39 29 20 11 357 359 346 -0 11 259
314 284 325 302 140 111 107 99 99 100 103 89 72 31 9 8 8 2 9 44 61 58 55 58 55 46 57 68 81 80 69 52 50 63 33 18 14 5 3 342 302 325 313
330 332 335 349 351 341 106 97 101 99 106 101 90 19 27 19 2 6 18 43 60 67 65 64 48 40 75 79 83 81 78 69 61 74 42 5 16 19 2 340 329 292 282
332 329 344 1 360 7 9 39 97 103 105 114 103 47 4 16 8 357 12 38 57 73 71 74 35 348 113 90 81 78 71 71 81 80 72 30 23 23 5 348 358 349 348
340 343 354 357 1 13 22 28 36 33 112 124 138 150 5 7 9 5 11 25 42 59 65 73 56 356 9 71 78 77 71 65 67 74 77 126 26 19 359 357 8 3 2
353 354 0 354 359 9 4 15 28 30 33 51 138 192 265 332 353 4 6 11 26 32 40 45 38 22 36 57 64 75 75 72 64 59 62 56 46 50 43 36 20 21 19
358 358 354 355 357 3 6 5 10 18 21 20 28 14 312 282 301 325 350 8 7 9 16 19 17 18 41 54 63 66 69 72 62 61 50 39 54 55 50 48 43 39 35
357 357 351 354 0 1 6 357 2 3 4 6 353 344 1 5 309 300 306 322 330 6 1 359 4 9 20 40 56 72 69 63 54 54 49 48 62 53 50 44 44 42 39
357 353 351 355 354 353 355 355 356 356 0 357 352 350 1 358 348 336 313 295 300 306 315 338 347 355 1 21 35 42 62 58 54 44 39 52 68 69 60 48 41 44 43
353 353 352 353 353 356 358 357 359 357 357 355 350 346 347 348 348 335 317 308 306 315 314 309 308 318 346 7 17 26 28 25 38 44 43 56 69 57 63 59 49 44 41
354 353 351 352 353 355 356 356 353 355 355 354 349 347 345 343 340 338 335 333 326 323 326 320 317 317 316 322 344 357 356 0 5 15 29 57 67 57 42 52 53 46 43
354 354 354 354 356 358 358 357 354 352 351 348 344 342 342 343 339 338 336 333 330 327 319 316 316 316 320 322 314 315 323 329 335 340 355 32 45 45 33 31 31 36 35
360 358 356 355 355 355 356 354 353 351 350 348 346 343 340 337 334 331 330 330 329 326 323 319 315 311 310 314 319 315 312 308 311 321 332 3 23 31 25 20 16 22 29
2 359 359 0 2 3 2 1 359 356 353 351 349 346 343 340 335 331 328 325 323 323 320 318 316 314 312 308 305 308 304 307 309 309 313 323 355 7 7 4 3 6 11
11 7 3 4 5 6 5 4 3 1 358 355 352 348 346 344 338 336 331 326 324 321 317 317 314 313 312 314 310 305 303 303 305 304 306 310 313 333 344 347 349 348 354
12 11 11 10 8 8 8 8 5 3 2 358 354 352 349 346 341 337 335 332 328 327 322 318 310 311 311 310 309 303 306 308 297 296 301 303 307 306 314 315 317 327 331
14 10 7 7 7 8 9 9 7 3 1 358 356 354 352 350 348 345 340 334 332 330 329 324 319 312 305 298 295 293 306 308 307 297 291 297 299 302 305 307 292 285 303
15 13 11 8 3 3 5 3 2 1 1 0 358 355 353 352 350 348 346 342 339 335 331 328 324 323 322 312 299 296 298 305 306 304 303 293 299 299 301 302 298 299 281
13 10 8 8 7 6 4 5 2 1 359 360 1 1 358 356 354 353 351 349 346 341 338 335 331 324 323 321 313 300 298 300 302 304 306 305 306 298 294 301 299 296 294
16 14 12 11 11 10 10 13 17 10 9 10 7 4 2 1 360 358 356 355 354 351 347 344 338 331 329 331 319 315 302 298 303 303 302 302 299 295 296 291 293 293 292
22 22 19 16 17 20 20 20 18 19 15 8 4 3 2 359 359 1 360 357 355 353 350 348 347 344 336 335 336 326 309 303 306 308 303 304 302 296 297 293 291 289 289
29 25 24 21 21 21 20 19 16 14 8 10 9 7 5 2 359 357 357 357 356 354 352 350 349 347 346 342 342 338 329 318 305 300 303 305 304 299 296 293 294 291 291
24 22 20 15 17 18 18 19 18 14 15 14 13 7 5 4 3 0 358 356 354 358 356 353 350 349 349 346 344 340 336 331 325 310 298 300 300 303 300 298 292 289 289
19 18 13 8 8 13 16 14 15 14 10 2 358 1 1 1 8 6 1 359 0 357 359 355 353 351 351 353 350 346 341 336 329 323 311 305 298 298 297 298 297 294 287